Other Surface Observations
Issued by NWS

Home | Current Version | Previous Version | Text Only | Print | Product List | Glossary On
Versions: 1 2 3 4 5 6 7 8 9 10 11 12 13 14 15 16 17 18 19 20 21 22 23 24 25 26 27 28 29 30 31 32 33 34 35 36 37 38 39 40 41 42 43 44 45 46 47 48 49 50
308
SXUS52 KTAE 231418
OSOTAE
OSOTAE
North Florida/South Alabama/Southwest Georgia Weather Roundup
National Weather Service Tallahassee Florida
900 AM EST THU FEB 23 2017

Note: "fair" indicates few or no clouds below 12,000 feet with no
significant weather and/or obstructions to visibility.

!FLZ017-115-028-034-025-231500
...North Florida...

CITY           SKY/WX    TMP DP  RH WIND       PRES   REMARKS
TALLAHASSEE    MOSUNNY   66  62  87 NE9       29.81R
APALACHICOLA   SUNNY     66  64  93 NE12      29.79R
PERRY          CLOUDY    66  63  90 N8        29.81R
CROSS CITY     CLOUDY    64  63  94 N13       29.76R
JACKSONVILLE   PTSUNNY   67  65  93 NE13      29.76R
$$

!FLZ112-006-005-002-011-231500
...Florida Panhandle...

CITY           SKY/WX    TMP DP  RH WIND       PRES   REMARKS
MARIANNA       CLOUDY    63  62  97 NE7       29.83S
BONIFAY        CLOUDY    62  62 100 NE8       29.85R
PANAMA CITY NW CLOUDY    63  61  93 N12       29.81S
TYNDALL AFB    CLOUDY    63  61  94 NE8       29.82R
TYND DRONE APT CLOUDY    61  62 100 NE9       29.81S
DE FUNIAK SPR  CLOUDY    62  60  96 NE7       29.85R
EGLIN AFB      MOSUNNY   64  59  82 N6        29.83R
DESTIN         SUNNY     66  66 100 N7        29.83R
HURLBURT       MOSUNNY   64  59  85 NE9       29.82R
CRESTVIEW      CLOUDY    64  60  87 NE5       29.86R
PENSACOLA      CLOUDY    62  59  90 NE6       29.84R
$$

!ALZ063-066-231500
...South Alabama...

CITY           SKY/WX    TMP DP  RH WIND       PRES   REMARKS
DOTHAN         CLOUDY    63  62  97 NE8       29.88S
OZARK CAIRNS   CLOUDY    63  57  82 NE10      29.87R
FT RUCKER HELI CLOUDY    62  60  93 E6        29.85R
RUCKER HELI 3  NOT AVBL
RUCKER HELI 2  CLOUDY    63  61  94 E6        29.85R
FLORALA APT    CLOUDY    62  59  90 NE8       29.87R
ANDALUSIA      CLOUDY    65  60  84 E6        29.86R
TROY           CLOUDY    63  61  93 NE6       29.88R
EUFALA         CLOUDY    65  61  87 NE6       29.86R
MOBILE         MOSUNNY   61  59  93 E5        29.85R FOG
$$

!GAZ120>161-231500
...Southwest and South Central Georgia...

CITY           SKY/WX    TMP DP  RH WIND       PRES   REMARKS
THOMASVILLE    PTSUNNY   66  66 100 NE10G16   29.84S
BAINBRIDGE     SUNNY     64  61  88 NE10      29.84R
MOODY AFB      CLOUDY    64  61  89 N15       29.82S
VALDOSTA       CLOUDY    65  62  90 N9        29.83R
MOULTRIE       PTSUNNY   64  61  88 NE6       29.85S
BLAKELY        SUNNY     68  63  83 NE5       29.86R
ALBANY         PTSUNNY   65  62  90 NE12      29.88R
TIFTON         CLOUDY    64  63  97 NE8       29.85S
FITZGERALD     PTSUNNY   64  63  94 NE6       29.89R
CORDELE        PTSUNNY   67  62  84 E8        29.89R
AMERICUS       CLOUDY    61  61 100 E8        29.90R
HOMERVILLE     CLOUDY    64  63  94 N6        29.84R
$$

!GMZ750-755-770-775-231500
...Coastal and Buoy Obs...

STATION/POSITION TIME  TEMP    WIND        PRES    VSBY  WAVE
                       AIR SEA DIR/SP/G                  HT/PER
                 (UTC) (F)     (DEG/KT/KT) (MB)    (MI)  (FT/S)
KEATON BEACH     1400   65      20/  9/ 13 1008.0R
CEDAR KEY        1400   67      20/ 10/ 13 1006.5R
C TOWER          1400   64      40/ 19/ 20 1008.8R
APALACHICOLA BUO 1350   68 69   20/ 19/ 21 1006.8R         4/ 5
PANAMA CITY BUOY 1350   67 71              1008.6R         4/ 5
MOBILE BUOY      NOT AVBL
ORANGE BCH AL BU 1350   63 68   80/ 12/ 14 1010.0R         2/ 3
$$




USA.gov is the U.S. government's official web portal to all federal, state and local government web resources and services.